Flag for Spain Weather for the Past 2 Weeks in Santa Cruz de Tenerife, Canary Islands, Spain

Now
55 °F

Passing clouds.


Feels Like: 51 °F
Forecast: N/A
Wind: 20 mph from Northwest

Location: Tenerife / Los Rodeos

Current Time: Feb 10, 2016 at 9:17:13 PM

Latest Report: Feb 10, 2016 at 8:30 PM


Visibility: N/A

Pressure: 30.39 "Hg

Humidity: 88%

Dew point: 52 °F

Location of Santa Cruz de TenerifeLocation

Historic Weather in Santa Cruz de Tenerife — Graph

°F

Santa Cruz de Tenerife Temperature Yesterday

Maximum temperature yesterday: 66 °F (at 2:30 PM)
Minimum temperature yesterday: 52 °F (at 10:30 PM)
Average temperature yesterday: 58 °F

High & Low Weather Summary for the Past Weeks

 TemperatureHumidityPressure
High68 °F (Feb 1, 2:00 PM)100% (Jan 31, 9:30 PM)30.54 "Hg (Jan 31, 9:30 PM)
Low50 °F (Feb 7, 5:30 AM)28% (Jan 27, 9:30 AM)30.18 "Hg (Feb 5, 3:30 PM)
Average58 °F81%30.37 "Hg
* Reported Jan 26 8:00 PM — Feb 10 8:00 PM, Santa Cruz de Tenerife, Weather by CustomWeather, © 2016

Note: Actual official high and low records may vary slightly from our data, if they occured in-between our weather recording intervals... More about our weather records

Advertising

Santa Cruz de Tenerife Weather History for the Previous 24 Hours

 ConditionsComfort  
Time TempWeatherWind HumidityBarometerVisibility
8:00 PM
Wed, Feb 10
55 °FPassing clouds.16 mph88%30.36 "HgN/A
7:30 PM55 °FPassing clouds.16 mph88%30.36 "HgN/A
7:00 PM55 °FPassing clouds.20 mph88%30.36 "HgN/A
6:30 PM55 °FScattered clouds.17 mph94%30.33 "HgN/A
6:00 PM57 °FScattered clouds.15 mph88%30.33 "HgN/A
5:30 PM57 °FPartly sunny.14 mph94%30.33 "HgN/A
5:00 PM57 °FPartly sunny.15 mph88%30.33 "HgN/A
4:30 PM59 °FPartly sunny.13 mph82%30.33 "HgN/A
4:00 PM59 °FPartly sunny.14 mph77%30.36 "HgN/A
3:30 PM61 °FPartly sunny.14 mph77%30.36 "HgN/A
3:00 PM61 °FPartly sunny.15 mph77%30.36 "HgN/A
2:30 PM61 °FPartly sunny.17 mph72%30.36 "HgN/A
2:00 PM61 °FPartly sunny.17 mph77%30.39 "HgN/A
1:30 PM61 °FPartly sunny.17 mph72%30.39 "HgN/A
1:00 PM61 °FPartly sunny.15 mph77%30.42 "HgN/A
12:30 PM61 °FPartly sunny.14 mph77%30.42 "HgN/A
12:00 PM61 °FPartly sunny.14 mph77%30.45 "HgN/A
11:30 AM59 °FPartly sunny.12 mph82%30.45 "HgN/A
11:00 AM59 °FPartly sunny.9 mph82%30.45 "HgN/A
10:30 AM57 °FPartly sunny.10 mph88%30.45 "HgN/A
10:00 AM57 °FPartly sunny.12 mph88%30.45 "HgN/A
9:30 AM55 °FPartly sunny.9 mph94%30.45 "HgN/A
9:00 AM55 °FScattered clouds.12 mph94%30.42 "HgN/A
8:30 AM54 °FScattered clouds.9 mph94%30.42 "HgN/A
8:00 AM52 °FScattered clouds.8 mph100%30.42 "HgN/A
7:30 AM54 °FPassing clouds.9 mph94%30.42 "HgN/A
7:00 AM54 °FPassing clouds.10 mph94%30.39 "HgN/A
6:30 AM54 °FPassing clouds.12 mph94%30.39 "HgN/A
6:00 AM54 °FPassing clouds.10 mph94%30.39 "HgN/A
11:00 PM
Tue, Feb 9
54 °FPassing clouds.3 mph88%30.48 "HgN/A
10:30 PM52 °FPassing clouds.No wind94%30.48 "HgN/A
9:30 PM54 °FPassing clouds.3 mph94%30.48 "HgN/A
9:00 PM54 °FPassing clouds.2 mph88%30.48 "HgN/A
Weather by CustomWeather, © 2016

See weather overviewHow to use our weather pages